カタログに戻る

COSMOS 1818 COOLANT

LostLEO
NORAD 36943·DEBRIS·🇷🇺 Russia

打ち上げ Feb 1, 1987 から Baikonur Cosmodrome

Loading…

次のパス (今後24時間)

TLE

古いSource: Space-Track

元期: Sep 22, 2022, 02:55 UTC

1 36943U 87011X   22265.12183948  .00000362  00000-0  16619-3 0  9992
2 36943  65.0084  86.7351 0015622 245.4773 114.4684 14.33757623653595

AllMySatでCOSMOS 1818 COOLANTをリアルタイム追跡

Download on the App Store